If you wish to contribute or participate in the discussions about articles you are invited to join SKYbrary as a registered user

Tromso/Langnes

From SKYbrary Wiki
ENTC
Airport
ICAO: ENTC
Summary
Name Tromso/Langnes
Region Europe
Territory Norway NO.gif
Location Tromso, Norway
Serving
Coordinates 69° 40' 54", 18° 55' 6"
Runways
Designator Length Width Surface
1/19 2392 m7,847.769 ft 45 m147.638 ft ASP
METAR
Observation ENTC 030550Z 31004KT 280V340 9999 FEW003 SCT008 BKN018 10/09 Q1014 REDZ TEMPO 4000 -RADZ FEW002 BKN006 RMK WIND 2600FT 29005KT
Station Tromso / Langnes
Date/Time 03 August 2015 05:50:00
Wind direction 310°
Wind speed 04 kts
Lowest cloud amount few clouds
Temperature 10°C
Dew point 9°C
Humidity 93%
QNH 1014 hPa
Weather condition n/a


Tromsø Airport

ICAO: ENTC IATA: TOS

Description

International airport serving city of Tromso in northern Norway.

Climatology

Borderline Subpolar Oceanic/Continental subarctic climate (because of winter temperatures) (Köppen climate classification Cfc/Dfc) - uniform precipitation distribution, temperatures are moderated by the proximity of the ocean and warm currents - cool summers and comparatively mild winters.

Tromso has a reputation for heavy snowfalls in winter.

Maps

Terrain

Loading map...

Airport Layout

Loading map...


Accidents & Serious Incidents at or in vicinity of ENTC

None on SKYbrary